• în Republica Moldova
  • Lista ţărilor
  • Pe 7 zile
  • Temperatura apei
  • Hartă satelitară
  • Meteo pe hartă
  • Widget-uri
  • user-avatar
    Intrare

    Meteo pe oră la Korçe

    Astăzi, 21 Ianuarie, Luni

    Timp Temperatura Precipitaţii Vânt Presiune Umiditate
    00:00 0°C° 0 mm 1 m/s 662 mmHg 86%
    01:00 0°C° 0 mm 1 m/s 662 mmHg 85%
    02:00 0°C° 0 mm 1 m/s 662 mmHg 84%
    03:00 0°C° 0 mm 1 m/s 662 mmHg 83%
    04:00 0°C° 0 mm 1 m/s 662 mmHg 82%
    05:00 0°C° 0 mm 1 m/s 662 mmHg 81%
    06:00 0°C° 0 mm 1 m/s 662 mmHg 80%
    07:00 0°C° 0 mm 1 m/s 662 mmHg 79%
    08:00 +1°C° 0 mm 1 m/s 663 mmHg 77%
    09:00 +3°C° 0 mm 1 m/s 664 mmHg 75%
    10:00 +5°C° 0 mm 1 m/s 664 mmHg 73%
    11:00 +5°C° 0 mm 1 m/s 664 mmHg 71%
    12:00 +5°C° 0 mm 2 m/s 664 mmHg 70%
    13:00 +6°C° 0 mm 2 m/s 664 mmHg 69%
    14:00 +5°C° 0 mm 2 m/s 664 mmHg 71%
    15:00 +4°C° 0 mm 2 m/s 664 mmHg 74%
    16:00 +4°C° 0 mm 1 m/s 664 mmHg 77%
    17:00 +3°C° 0 mm 2 m/s 663 mmHg 80%
    18:00 +2°C° 0 mm 2 m/s 663 mmHg 83%
    19:00 +1°C° 0 mm 2 m/s 663 mmHg 87%
    20:00 +1°C° 0 mm 2 m/s 663 mmHg 87%
    21:00 -1°C° 0 mm 2 m/s 663 mmHg 88%
    22:00 -1°C° 0 mm 2 m/s 663 mmHg 88%
    23:00 -1°C° 0 mm 2 m/s 663 mmHg 88%

    Mâine, 22 Ianuarie, Marţi

    Timp Temperatura Precipitaţii Vânt Presiune Umiditate
    00:00 -1°C° 0 mm 2 m/s 663 mmHg 88%
    01:00 -1°C° 0 mm 2 m/s 663 mmHg 88%
    02:00 -1°C° 0 mm 2 m/s 662 mmHg 88%
    03:00 -1°C° 0 mm 2 m/s 662 mmHg 87%
    04:00 -1°C° 0 mm 2 m/s 662 mmHg 87%
    05:00 -1°C° 0.1 mm 2 m/s 662 mmHg 87%
    06:00 0°C° 0.1 mm 3 m/s 661 mmHg 87%
    07:00 0°C° 0.1 mm 3 m/s 661 mmHg 88%
    08:00 0°C° 0.3 mm 3 m/s 661 mmHg 88%
    09:00 +1°C° 0.3 mm 3 m/s 661 mmHg 88%
    10:00 +1°C° 0.3 mm 3 m/s 661 mmHg 88%
    11:00 +1°C° 0.8 mm 3 m/s 661 mmHg 89%
    12:00 +1°C° 0.8 mm 3 m/s 660 mmHg 90%
    13:00 +1°C° 0.8 mm 3 m/s 659 mmHg 91%
    14:00 +1°C° 0.9 mm 3 m/s 659 mmHg 92%
    15:00 +1°C° 0.9 mm 3 m/s 658 mmHg 92%
    16:00 +1°C° 0.9 mm 3 m/s 658 mmHg 92%
    17:00 +1°C° 1.7 mm 3 m/s 658 mmHg 93%
    18:00 +1°C° 1.7 mm 3 m/s 657 mmHg 94%
    19:00 +1°C° 1.7 mm 3 m/s 657 mmHg 95%
    20:00 +1°C° 0.4 mm 3 m/s 657 mmHg 96%
    21:00 +1°C° 0.4 mm 3 m/s 657 mmHg 97%
    22:00 0°C° 0.4 mm 3 m/s 657 mmHg 98%
    23:00 0°C° 0.1 mm 3 m/s 657 mmHg 98%

    Poimâine, 23 Ianuarie, Miercuri

    Timp Temperatura Precipitaţii Vânt Presiune Umiditate
    00:00 0°C° 0.1 mm 3 m/s 657 mmHg 98%
    01:00 0°C° 0.1 mm 3 m/s 657 mmHg 98%
    02:00 0°C° 0 mm 3 m/s 657 mmHg 98%
    03:00 -1°C° 0 mm 3 m/s 656 mmHg 97%
    04:00 -1°C° 0 mm 3 m/s 656 mmHg 97%
    05:00 -1°C° 0.2 mm 3 m/s 656 mmHg 97%
    06:00 -1°C° 0.2 mm 3 m/s 656 mmHg 96%
    07:00 -1°C° 0.2 mm 3 m/s 656 mmHg 96%
    08:00 0°C° 0 mm 3 m/s 656 mmHg 95%
    09:00 0°C° 0 mm 3 m/s 657 mmHg 93%
    10:00 +1°C° 0 mm 3 m/s 657 mmHg 91%
    11:00 +2°C° 0 mm 3 m/s 656 mmHg 87%
    12:00 +2°C° 0 mm 3 m/s 656 mmHg 83%
    13:00 +3°C° 0 mm 3 m/s 656 mmHg 79%
    14:00 +3°C° 0 mm 2 m/s 655 mmHg 81%
    15:00 +3°C° 0 mm 2 m/s 655 mmHg 83%
    16:00 +3°C° 0 mm 1 m/s 654 mmHg 85%
    17:00 +2°C° 0 mm 2 m/s 654 mmHg 86%
    18:00 +2°C° 0 mm 2 m/s 654 mmHg 87%
    19:00 +1°C° 0 mm 2 m/s 654 mmHg 88%
    20:00 +1°C° 0.2 mm 2 m/s 653 mmHg 89%
    21:00 +1°C° 0.2 mm 2 m/s 653 mmHg 89%
    22:00 +2°C° 0.2 mm 1 m/s 653 mmHg 89%
    23:00 +1°C° 1.1 mm 2 m/s 652 mmHg 90%

    24 Ianuarie, Joi

    Timp Temperatura Precipitaţii Vânt Presiune Umiditate
    00:00 +1°C° 1.1 mm 2 m/s 652 mmHg 91%
    01:00 +1°C° 1.1 mm 2 m/s 651 mmHg 92%
    02:00 +1°C° 0.7 mm 2 m/s 651 mmHg 92%
    03:00 +1°C° 0.7 mm 2 m/s 650 mmHg 92%
    04:00 +1°C° 0.7 mm 2 m/s 650 mmHg 92%
    05:00 +1°C° 0.1 mm 2 m/s 649 mmHg 92%
    06:00 -1°C° 0.1 mm 2 m/s 649 mmHg 91%
    07:00 -1°C° 0.1 mm 2 m/s 649 mmHg 91%
    08:00 +1°C° 0 mm 2 m/s 649 mmHg 90%
    09:00 +2°C° 0 mm 2 m/s 649 mmHg 89%
    10:00 +3°C° 0 mm 2 m/s 650 mmHg 88%
    11:00 +4°C° 0.1 mm 2 m/s 650 mmHg 87%
    12:00 +5°C° 0.1 mm 1 m/s 650 mmHg 87%
    13:00 +5°C° 0.1 mm 1 m/s 650 mmHg 86%
    14:00 +5°C° 0.3 mm 1 m/s 650 mmHg 88%
    15:00 +4°C° 0.3 mm 1 m/s 650 mmHg 90%
    16:00 +4°C° 0.3 mm 1 m/s 650 mmHg 92%
    17:00 +4°C° 0.1 mm 1 m/s 650 mmHg 92%
    18:00 +2°C° 0.1 mm 2 m/s 650 mmHg 92%
    19:00 +2°C° 0.1 mm 2 m/s 651 mmHg 92%
    20:00 +1°C° 0 mm 2 m/s 651 mmHg 92%
    21:00 +1°C° 0 mm 2 m/s 651 mmHg 91%
    22:00 +1°C° 0 mm 2 m/s 651 mmHg 91%
    23:00 -1°C° 0.1 mm 2 m/s 651 mmHg 91%

    25 Ianuarie, Vineri

    Timp Temperatura Precipitaţii Vânt Presiune Umiditate
    00:00 -1°C° 0.1 mm 2 m/s 651 mmHg 91%
    01:00 -1°C° 0.1 mm 2 m/s 651 mmHg 91%
    02:00 -1°C° 1.2 mm 2 m/s 651 mmHg 92%
    03:00 +1°C° 1.2 mm 2 m/s 651 mmHg 92%
    04:00 +1°C° 1.2 mm 2 m/s 652 mmHg 93%
    05:00 +2°C° 0.8 mm 1 m/s 652 mmHg 93%
    06:00 +2°C° 0.8 mm 1 m/s 652 mmHg 93%
    07:00 +2°C° 0.8 mm 1 m/s 652 mmHg 93%
    08:00 +2°C° 0.2 mm 1 m/s 653 mmHg 92%
    09:00 +3°C° 0.2 mm 1 m/s 653 mmHg 90%
    10:00 +3°C° 0.2 mm 1 m/s 653 mmHg 89%
    11:00 +4°C° 0 mm 1 m/s 653 mmHg 86%
    12:00 +4°C° 0 mm 1 m/s 653 mmHg 83%
    13:00 +5°C° 0 mm 1 m/s 653 mmHg 80%
    14:00 +4°C° 0 mm 1 m/s 653 mmHg 81%
    15:00 +4°C° 0 mm 1 m/s 653 mmHg 83%
    16:00 +4°C° 0 mm 1 m/s 653 mmHg 85%
    17:00 +3°C° 0 mm 1 m/s 653 mmHg 86%
    18:00 +2°C° 0 mm 1 m/s 653 mmHg 87%
    19:00 -1°C° 0 mm 2 m/s 653 mmHg 88%
    20:00 -1°C° 0 mm 2 m/s 653 mmHg 88%
    21:00 -2°C° 0 mm 2 m/s 653 mmHg 88%
    22:00 -2°C° 0 mm 2 m/s 653 mmHg 88%
    23:00 -2°C° 0 mm 2 m/s 653 mmHg 87%

    26 Ianuarie, Sâmbătă

    Timp Temperatura Precipitaţii Vânt Presiune Umiditate
    00:00 -3°C° 0 mm 2 m/s 653 mmHg 87%
    01:00 -3°C° 0 mm 2 m/s 653 mmHg 87%
    02:00 -3°C° 0 mm 2 m/s 653 mmHg 88%
    03:00 -3°C° 0 mm 2 m/s 653 mmHg 88%
    04:00 -4°C° 0 mm 2 m/s 653 mmHg 89%
    05:00 -4°C° 0 mm 2 m/s 653 mmHg 88%
    06:00 -4°C° 0 mm 2 m/s 653 mmHg 88%
    07:00 -5°C° 0 mm 2 m/s 653 mmHg 88%
    08:00 -3°C° 0 mm 2 m/s 654 mmHg 84%
    09:00 -2°C° 0 mm 2 m/s 655 mmHg 79%
    10:00 -1°C° 0 mm 2 m/s 655 mmHg 75%
    11:00 +1°C° 0 mm 2 m/s 655 mmHg 73%
    12:00 +2°C° 0 mm 2 m/s 656 mmHg 72%
    13:00 +2°C° 0 mm 2 m/s 656 mmHg 71%
    14:00 +2°C° 0 mm 2 m/s 656 mmHg 73%
    15:00 +2°C° 0 mm 1 m/s 656 mmHg 75%
    16:00 +2°C° 0 mm 1 m/s 656 mmHg 77%
    17:00 +1°C° 0 mm 1 m/s 656 mmHg 79%
    18:00 0°C° 0 mm 1 m/s 656 mmHg 81%
    19:00 -1°C° 0 mm 1 m/s 656 mmHg 84%
    20:00 -2°C° 0 mm 1 m/s 656 mmHg 84%
    21:00 -2°C° 0 mm 1 m/s 656 mmHg 83%
    22:00 -3°C° 0 mm 1 m/s 656 mmHg 83%
    23:00 -3°C° 0 mm 1 m/s 656 mmHg 82%
    Arată mai mult